Appleton, MN

6:12 AM CST on November 13, 2019 (GMT -0600)
Appleton Municipal

Weather History for KAQP - August, 2019

Change the Weather History Date:

Tuesday, August 13, 2019

  Actual Average Record
Temperature  
Mean Temperature 72 °F -  
Max Temperature 78 °F 77 °F 91 °F (2018)
Min Temperature 64 °F 55 °F 42 °F (2004)
Cooling Degree Days 7    
Growing Degree Days 22 (Base 50)    
Moisture  
Dew Point 62 °F    
Average Humidity 78    
Maximum Humidity 94    
Minimum Humidity 53    
Precipitation  
Precipitation 0.00 in - - ()
Sea Level Pressure  
Sea Level Pressure 29.93 in    
Wind  
Wind Speed 5 mph (WNW)    
Max Wind Speed 21 mph    
Max Gust Speed 25 mph    
Visibility 8 miles    
Events Fog    
Averages and records for this station are not official NWS values.
T = Trace of Precipitation, MM = Missing Value Source: NWS Daily Summary

Daily Weather History Graph

Daily Weather History Graph

Search for Another Location

Airport or City:

Astronomy

Aug. 13, 2019 Rise Set
Actual Time 6:22 AM CDT 8:34 PM CDT
Civil Twilight 5:50 AM CDT 9:06 PM CDT
Nautical Twilight 5:10 AM CDT 9:46 PM CDT
Astronomical Twilight 4:25 AM CDT 10:30 PM CDT
Moon 7:55 PM CDT 4:19 AM CDT
Length of Visible Light 15h 16m
Length of Day
14h 11m
Waxing Gibbous, 97% of the Moon is Illuminated
Aug 13
Waxing Gibbous
Aug 15
Full
Aug 23
Last Quarter
Aug 30
New
Sep 5
First Quarter

Hourly Weather History & Observations

Time (CDT) Temp. Dew Point Humidity Pressure Visibility Wind Dir Wind Speed Gust Speed Precip Events Conditions
12:11 AM 69.8 °F 66.2 °F 88% 29.88 in 7.0 mi Calm Calm - N/A   Overcast
12:31 AM 69.8 °F 66.2 °F 88% 29.88 in 10.0 mi Calm Calm - N/A   Mostly Cloudy
12:53 AM 69.8 °F 66.2 °F 88% 29.88 in 10.0 mi Calm Calm - N/A   Overcast
1:11 AM 69.8 °F 66.2 °F 88% 29.88 in 10.0 mi Calm Calm - N/A   Overcast
1:31 AM 69.8 °F 66.2 °F 88% 29.88 in 7.0 mi Calm Calm - N/A   Mostly Cloudy
1:51 AM 68.0 °F 64.4 °F 88% 29.88 in 7.0 mi Calm Calm - N/A   Mostly Cloudy
2:11 AM 68.0 °F 64.4 °F 88% 29.89 in 5.0 mi Calm Calm - N/A   Mostly Cloudy
2:30 AM 68.0 °F 64.4 °F 88% 29.89 in 7.0 mi NNW 4.6 mph - N/A   Scattered Clouds
2:52 AM 68.0 °F 64.4 °F 88% 29.89 in 4.0 mi NNW 5.8 mph - N/A   Mostly Cloudy
3:15 AM 68.0 °F 64.4 °F 88% 29.89 in 0.5 mi NNW 4.6 mph - N/A Fog Fog
3:31 AM 68.0 °F 64.4 °F 88% 29.89 in 0.5 mi NW 6.9 mph - N/A Fog Fog
3:51 AM 66.2 °F 64.4 °F 94% 29.89 in 0.5 mi NW 5.8 mph - N/A Fog Fog
4:10 AM 66.2 °F 64.4 °F 94% 29.90 in 0.5 mi NW 8.1 mph - N/A Fog Fog
4:30 AM 66.2 °F 64.4 °F 94% 29.91 in 4.0 mi NNW 5.8 mph - N/A   Overcast
4:52 AM 66.2 °F 64.4 °F 94% 29.91 in 1.0 mi NW 9.2 mph - N/A   Overcast
5:11 AM 66.2 °F 64.4 °F 94% 29.91 in 0.8 mi NW 5.8 mph - N/A   Overcast
5:31 AM 66.2 °F 64.4 °F 94% 29.91 in 2.5 mi NNW 3.5 mph - N/A   Overcast
5:51 AM 66.2 °F 64.4 °F 94% 29.92 in 7.0 mi NW 6.9 mph - N/A   Overcast
6:12 AM 66.2 °F 62.6 °F 88% 29.92 in 7.0 mi West 3.5 mph - N/A   Overcast
6:31 AM 66.2 °F 62.6 °F 88% 29.92 in 10.0 mi West 3.5 mph - N/A   Overcast
6:51 AM 66.2 °F 62.6 °F 88% 29.92 in 10.0 mi Calm Calm - N/A   Overcast
7:10 AM 66.2 °F 62.6 °F 88% 29.92 in 10.0 mi Calm Calm - N/A   Overcast
7:33 AM 66.2 °F 62.6 °F 88% 29.92 in 10.0 mi Calm Calm - N/A   Overcast
7:51 AM 66.2 °F 62.6 °F 88% 29.92 in 7.0 mi Calm Calm - N/A   Overcast
8:13 AM 66.2 °F 62.6 °F 88% 29.92 in 7.0 mi Calm Calm - N/A   Overcast
8:31 AM 66.2 °F 62.6 °F 88% 29.92 in 7.0 mi Calm Calm - N/A   Overcast
8:51 AM 68.0 °F 64.4 °F 88% 29.92 in 7.0 mi Calm Calm - N/A   Overcast
9:10 AM 68.0 °F 62.6 °F 83% 29.92 in 10.0 mi Calm Calm - N/A   Overcast
9:31 AM 68.0 °F 64.4 °F 88% 29.92 in 10.0 mi SSW 4.6 mph - N/A   Overcast
9:52 AM 69.8 °F 64.4 °F 83% 29.92 in 10.0 mi South 4.6 mph - N/A   Mostly Cloudy
10:11 AM 69.8 °F 64.4 °F 83% 29.92 in 10.0 mi SW 6.9 mph - N/A   Mostly Cloudy
10:31 AM 71.6 °F 64.4 °F 78% 29.92 in 10.0 mi South 4.6 mph - N/A   Scattered Clouds
10:52 AM 73.4 °F 64.4 °F 73% 29.92 in 10.0 mi Calm Calm - N/A   Scattered Clouds
11:11 AM 75.2 °F 64.4 °F 69% 29.92 in 10.0 mi SW 3.5 mph - N/A   Clear
11:31 AM 75.2 °F 64.4 °F 69% 29.91 in 10.0 mi Calm Calm - N/A   Scattered Clouds
11:51 AM 78.8 °F 62.6 °F 57% 29.91 in 10.0 mi West 16.1 mph - N/A   Mostly Cloudy
12:10 PM 78.8 °F 62.6 °F 57% 29.92 in 10.0 mi West 15.0 mph 20.7 mph N/A   Scattered Clouds
12:31 PM 75.2 °F 60.8 °F 61% 29.92 in 10.0 mi WNW 17.3 mph 23.0 mph N/A   Scattered Clouds
12:52 PM 75.2 °F 57.2 °F 53% 29.93 in 10.0 mi West 18.4 mph 24.2 mph N/A   Scattered Clouds
1:11 PM 73.4 °F 55.4 °F 53% 29.94 in 10.0 mi West 20.7 mph 25.3 mph N/A   Mostly Cloudy
1:31 PM 73.4 °F 57.2 °F 57% 29.94 in 10.0 mi West 18.4 mph 24.2 mph N/A   Mostly Cloudy
1:51 PM 71.6 °F 57.2 °F 60% 29.94 in 10.0 mi West 17.3 mph 24.2 mph N/A   Overcast
2:11 PM 71.6 °F 57.2 °F 60% 29.94 in 10.0 mi West 13.8 mph - N/A   Overcast
2:31 PM 73.4 °F 60.8 °F 65% 29.93 in 10.0 mi West 12.7 mph - N/A   Mostly Cloudy
2:51 PM 73.4 °F 59.0 °F 61% 29.93 in 10.0 mi West 17.3 mph 20.7 mph N/A   Mostly Cloudy
3:14 PM 73.4 °F 59.0 °F 61% 29.93 in 10.0 mi West 17.3 mph 24.2 mph N/A   Scattered Clouds
3:31 PM 71.6 °F 57.2 °F 60% 29.92 in 10.0 mi WNW 11.5 mph 24.2 mph N/A   Mostly Cloudy
3:51 PM 73.4 °F 60.8 °F 65% 29.93 in 10.0 mi WNW 15.0 mph 23.0 mph N/A   Mostly Cloudy
4:13 PM 73.4 °F 59.0 °F 61% 29.93 in 10.0 mi WNW 18.4 mph 25.3 mph N/A   Mostly Cloudy
4:31 PM 71.6 °F 60.8 °F 69% 29.93 in 10.0 mi WNW 11.5 mph 16.1 mph N/A   Mostly Cloudy
4:51 PM 71.6 °F 62.6 °F 73% 29.94 in 10.0 mi WNW 10.4 mph - N/A   Mostly Cloudy
5:12 PM 71.6 °F 60.8 °F 69% 29.94 in 10.0 mi WNW 9.2 mph - N/A   Mostly Cloudy
5:31 PM 71.6 °F 60.8 °F 69% 29.94 in 10.0 mi WNW 9.2 mph - N/A   Overcast
5:51 PM 71.6 °F 60.8 °F 69% 29.94 in 10.0 mi NW 9.2 mph 16.1 mph N/A   Overcast
6:12 PM 71.6 °F 60.8 °F 69% 29.95 in 10.0 mi NW 10.4 mph 18.4 mph N/A   Mostly Cloudy
6:31 PM 69.8 °F 60.8 °F 73% 29.96 in 10.0 mi NW 8.1 mph 16.1 mph N/A   Light Drizzle
6:51 PM 69.8 °F 60.8 °F 73% 29.96 in 10.0 mi NNW 10.4 mph - N/A   Mostly Cloudy
7:11 PM 69.8 °F 60.8 °F 73% 29.96 in 10.0 mi NW 5.8 mph - N/A   Scattered Clouds
7:31 PM 69.8 °F 60.8 °F 73% 29.97 in 10.0 mi NNW 5.8 mph - N/A   Scattered Clouds
7:53 PM 69.8 °F 60.8 °F 73% 29.97 in 10.0 mi NW 6.9 mph - N/A   Scattered Clouds
8:11 PM 68.0 °F 60.8 °F 78% 29.98 in 10.0 mi NW 8.1 mph - N/A   Scattered Clouds
8:31 PM 68.0 °F 59.0 °F 73% 29.99 in 10.0 mi NW 10.4 mph - N/A   Mostly Cloudy
8:51 PM 68.0 °F 59.0 °F 73% 29.99 in 10.0 mi NW 10.4 mph - N/A   Mostly Cloudy
9:11 PM 68.0 °F 59.0 °F 73% 30.00 in 10.0 mi NW 9.2 mph - N/A   Overcast
9:31 PM 66.2 °F 59.0 °F 78% 30.00 in 10.0 mi NW 10.4 mph 17.3 mph N/A   Overcast
9:50 PM 66.2 °F 59.0 °F 78% 30.00 in 10.0 mi NW 9.2 mph - N/A   Overcast
10:11 PM 66.2 °F 59.0 °F 78% 30.01 in 10.0 mi NW 8.1 mph - N/A   Overcast
10:31 PM 66.2 °F 59.0 °F 78% 30.01 in 10.0 mi NW 6.9 mph - N/A   Overcast
10:51 PM 66.2 °F 59.0 °F 78% 30.02 in 10.0 mi NW 5.8 mph - N/A   Overcast
11:11 PM 66.2 °F 59.0 °F 78% 30.02 in 10.0 mi NW 9.2 mph - N/A   Overcast
11:31 PM 66.2 °F 59.0 °F 78% 30.03 in 10.0 mi WNW 5.8 mph - N/A   Overcast
11:54 PM 64.4 °F 59.0 °F 83% 30.03 in 10.0 mi WNW 8.1 mph - N/A   Overcast